This demonstration page uses our WeatherBlox Daily Observations layout. Learn more.

36.17497, -115.13722

Hourly Observations for April 29, 2018

Temp ( °F °C ) Dew Point ( °F °C ) Humidity (%) Winds ( mph kmh ) Pressure ( in mb ) Visibility ( mi km ) Precip ( " mm )
12:53 am 00:53 Clear 71 21.7 13 -10.6 10 10 WSW 18 30 29.65 1004 10 16.09344 0 0
1:53 am 01:53 Clear 70 21.1 13 -10.6 11 11 S 5 7 29.65 1004 10 16.09344 0 0
2:53 am 02:53 Clear 67 19.4 18 -7.8 15 15 SSW 9 15 29.65 1004 10 16.09344 0 0
3:53 am 03:53 Clear 65 18.3 18 -7.8 16 16 W 7 11 29.68 1005 10 16.09344 0 0
4:53 am 04:53 Clear 62 16.7 17 -8.3 17 17 N 8 13 29.71 1006 10 16.09344 0 0
5:53 am 05:53 Sunny 61 16.1 17 -8.3 18 18 NNW 5 7 29.71 1006 10 16.09344 0 0
6:53 am 06:53 Sunny 62 16.7 17 -8.3 17 17 WSW 3 6 29.74 1007 10 16.09344 0 0
7:53 am 07:53 Sunny 66 18.9 21 -6.1 18 18 WSW 5 7 29.77 1008 10 16.09344 0 0
8:53 am 08:53 Sunny 69 20.6 20 -6.7 15 15 SW 7 11 29.74 1007 10 16.09344 0 0
9:53 am 09:53 Sunny 74 23.3 19 -7.2 12 12 SW 8 13 29.74 1007 10 16.09344 0 0
10:53 am 10:53 Sunny 76 24.4 19 -7.2 12 12 S 9 15 29.74 1007 10 16.09344 0 0
11:53 am 11:53 Sunny 78 25.6 18 -7.8 10 10 S 12 19 29.71 1006 10 16.09344 0 0
12:33 pm 12:33 Sunny 79 26.1 19 -7.2 10 10 SSE 18 30 29.56 1001 10 16.09344 0 0
12:53 pm 12:53 Sunny 79 26.1 18 -7.8 10 10 S 17 28 29.68 1005 10 16.09344 0 0
1:53 pm 13:53 Sunny 81 27.2 18 -7.8 9 9 S 16 26 29.65 1004 10 16.09344 0 0
2:53 pm 14:53 Sunny 81 27.2 21 -6.1 11 11 W 15 24 29.62 1003 10 16.09344 0 0
3:11 pm 15:11 Sunny 82 27.8 17 -8.3 9 9 SW 17 28 29.53 1000 10 16.09344 0 0
3:53 pm 15:53 Sunny 82 27.8 19 -7.2 9 9 SW 18 30 29.59 1002 10 16.09344 0 0
4:53 pm 16:53 Sunny 81 27.2 19 -7.2 10 10 SW 25 41 29.59 1002 10 16.09344 0 0
5:53 pm 17:53 Sunny 80 26.7 23 -5 12 12 W 23 37 29.59 1002 10 16.09344 0 0
6:53 pm 18:53 Sunny 79 26.1 23 -5 12 12 W 18 30 29.59 1002 10 16.09344 0 0
7:53 pm 19:53 Clear 77 25 21 -6.1 12 12 WSW 13 20 29.59 1002 10 16.09344 0 0
8:53 pm 20:53 Clear 73 22.8 26 -3.3 17 17 S 20 31 29.62 1003 10 16.09344 0 0
9:53 pm 21:53 Clear 71 21.7 27 -2.8 19 19 SW 17 28 29.62 1003 10 16.09344 0 0
10:53 pm 22:53 Clear 69 20.6 28 -2.2 22 22 SW 7 11 29.65 1004 10 16.09344 0 0
11:53 pm 23:53 Clear 67 19.4 28 -2.2 23 23 N 3 6 29.71 1006 10 16.09344 0 0

Powered by AerisWeather